This is the latest recevied weather packets stored in our database for station/object W4CKA. If no packets are shown the sender has not sent any weather packets the latest 10 day(s).
| Time | Temp. | Humidity | Pressure | Rain* | Wind** | Luminosity | Snow |
|---|---|---|---|---|---|---|---|
| 1787887706 | 21.67° C | 98% | 1057.5 hPa | 0 mm | - | 0 W/m² | - |
| 1787887101 | 21.67° C | 98% | 1057.7 hPa | 0 mm | - | 0 W/m² | - |
| 1787886496 | 21.67° C | 98% | 1057.6 hPa | 0 mm | - | 0 W/m² | - |
| 1787885897 | 21.11° C | 98% | 1057.6 hPa | 0 mm | - | 0 W/m² | - |
| 1787885294 | 21.11° C | 98% | 1057.7 hPa | 0 mm | - | 0 W/m² | - |
| 1787884690 | 21.11° C | 98% | 1057.5 hPa | 0 mm | - | 0 W/m² | - |
| 1787884086 | 21.67° C | 97% | 1057.6 hPa | 0 mm | - | 0 W/m² | - |
| 1787883484 | 21.67° C | 97% | 1057.6 hPa | 0 mm | - | 0 W/m² | - |
| 1787882883 | 21.67° C | 97% | 1057.5 hPa | 0 mm | - | 0 W/m² | - |
| 1787882281 | 22.22° C | 96% | 1057.4 hPa | 0 mm | - | 0 W/m² | - |
| 1787881676 | 22.22° C | 94% | 1057.4 hPa | 0 mm | - | 0 W/m² | - |
| 1787881073 | 22.22° C | 95% | 1057.3 hPa | 0 mm | - | 0 W/m² | - |
| 1787880473 | 22.22° C | 94% | 1057.1 hPa | 0 mm | - | 0 W/m² | - |
| 1787879868 | 22.78° C | 94% | 1056.9 hPa | 0 mm | - | 0 W/m² | - |
| 1787879265 | 22.78° C | 93% | 1056.9 hPa | 0 mm | - | 0 W/m² | - |
| 1787878661 | 22.78° C | 92% | 1056.7 hPa | 0 mm | - | 0 W/m² | - |
| 1787878057 | 23.33° C | 91% | 1056.7 hPa | 0 mm | - | 0 W/m² | - |
| 1787877454 | 23.89° C | 89% | 1056.5 hPa | 0 mm | - | 0 W/m² | - |
| 1787876849 | 24.44° C | 87% | 1056.5 hPa | 0 mm | - | 0 W/m² | - |
| 1787876249 | 24.44° C | 86% | 1056.4 hPa | 0 mm | - | 0 W/m² | - |
| 1787875644 | 25° C | 85% | 1056.7 hPa | 0 mm | - | 0 W/m² | - |
| 1787875041 | 25.56° C | 83% | 1056.4 hPa | 0 mm | - | 6 W/m² | - |
| 1787874441 | 26.11° C | 80% | 1056.3 hPa | 0 mm | - | 12 W/m² | - |
| 1787873837 | 27.22° C | 77% | 1056.3 hPa | 0 mm | - | 20 W/m² | - |
| 1787873232 | 27.78° C | 74% | 1056.3 hPa | 0 mm | - | 29 W/m² | - |
* Rain latest hour (hover to see other rain measurements)
** Current wind speed in m/s (hover to see current wind gust speed)